View from above orbital plane
|
View from above satellite
|
Ground track
|
The orbit data is extracted from the following two-line orbital elements,
1 25544U 98067A 21056.08384642 .00016717 00000-0 10270-3 0 9095
2 25544 51.6433 177.2054 0003378 46.0062 314.1367 15.49001131 31216
Epoch (UTC): | 25 February 2021 02:00:44 |
Eccentricity: | 0.0003378 |
inclination: | 51.6433° |
perigee height: | 417 km |
apogee height: | 422 km |
right ascension of ascending node: | 177.2054° |
argument of perigee: | 46.0062° |
revolutions per day: | 15.49001131 |
mean anomaly at epoch: | 314.1367° |
orbit number at epoch: | 3121 |
The dashed part of the orbit path shows where the satellite is in the earth's shadow,
|
|